Regional Weather Roundup
Issued by NWS

Home | Current Version | Previous Version | Graphics & Text | Print | Product List | Glossary On
Versions: 1 2 3 4 5 6 7 8 9 10 11 12 13 14 15 16 17 18 19 20 21 22 23 24 25 26 27 28 29 30 31 32 33 34 35 36 37 38 39 40 41 42 43 44 45 46 47 48 49 50
000
ASUS45 KABQ 302101
RWRNM
NEW MEXICO REGIONAL WEATHER ROUNDUP
NATIONAL WEATHER SERVICE ALBUQUERQUE NM
300 PM MDT SAT JUL 30 2016

NOTE: "FAIR" MEANS FEW OR NO CLOUDS BELOW 12,000 FEET AGL WITH NO
       SIGNIFICANT WEATHER OR OBSTRUCTIONS TO VISION.

      THIS PRODUCT IS RELEASED AS TWO VERSIONS.  ONE VERSION NEAR
      THE TOP OF THE HOUR CONTAINING PRELIMINARY DATA FROM ALBUQUERQUE
      AND OTHER STATIONS.  A FINAL VERSION WITH ADDITIONAL DATA IS
      ISSUED ABOUT 10 MINUTES AFTER THE HOUR.

NMZ501-503-504-510>518-302200-
NORTHWEST PLATEAU/NORTHCENTRAL MOUNTAINS

CITY           SKY/WX    TMP DP  RH WIND       PRES   REMARKS
FARMINGTON     FAIR      94  41  16 VRB3      30.03F
LOS ALAMOS     FAIR      78  45  30 S6        30.23S
SANTA FE       FAIR      90  43  19 W13G20    30.15F
TAOS           FAIR     N/A N/A N/A NW6       30.19
ANGEL FIRE     PTSUNNY   76  38  25 W12G21    30.29F

$$
NMZ402-403-502-505>509-302200-
WESTCENTRAL MOUNTAINS/SOUTHWEST MOUNTAINS

CITY           SKY/WX    TMP DP  RH WIND       PRES   REMARKS
GALLUP         FAIR      91  41  17 MISG      30.13F
GRANTS         FAIR      86  32  14 SW8       30.17F
SILVER CITY    FAIR      82  51  33 N14       30.13F

$$
NMZ407-409-411-412-302200-
SOUTHERN DESERTS

CITY           SKY/WX    TMP DP  RH WIND       PRES   REMARKS
LORDSBURG      FAIR      95  50  21 E8        30.02F
DEMING         FAIR      94  52  24 S7G16     30.02F
LAS CRUCES     FAIR      94  49  21 SE6       30.05F
HOLLOMAN AFB   FAIR      94  50  22 VRB6      30.00F
ALAMOGORDO     FAIR      93  48  21 SW13      30.03F
T OR C         FAIR      91  53  27 VRB5      30.05F

$$
NMZ519>523-302200-
CENTRAL VALLEYS/CENTRAL HIGHLANDS

CITY           SKY/WX    TMP DP  RH WIND       PRES   REMARKS
ALBUQUERQUE    FAIR      89  46  22 SW9       30.08F
DOUBLE EAGLE   PTSUNNY   90  48  24 SE14      30.15S
MORIARTY ARPT  PTSUNNY   86  47  25 SW5       30.16F
CLINES CORNERS FAIR      84  49  29 S10       30.23F
BELEN          FAIR      94  41  16 SW8       30.06F
SOCORRO        FAIR      94  47  19 SE14G23   30.04F

$$
NMZ524>526-539-540-302200-
SOUTHCENTRAL MOUNTAINS

CITY           SKY/WX    TMP DP  RH WIND       PRES   REMARKS
RUIDOSO          N/A     82  46  28 E10G22    30.25F

$$
NMZ527>531-302200-
NORTHEAST HIGHLANDS/NORTHEAST PLAINS

CITY           SKY/WX    TMP DP  RH WIND       PRES   REMARKS
LAS VEGAS      FAIR      78  46  32 SW16G23   30.19F
RATON          FAIR      88  50  27 SE16      30.11S
CLAYTON        FAIR      90  56  31 S23G29    30.04F

$$
NMZ532>537-302200-
EASTCENTRAL PLAINS

CITY           SKY/WX    TMP DP  RH WIND       PRES   REMARKS
TUCUMCARI      FAIR      96  51  21 S14G29    29.99F
CANNON AFB     FAIR      92  55  28 S20       30.05F
CLOVIS AIRPORT FAIR      91  57  31 S12       30.06F

$$
NMZ028-029-538-302200-
SOUTHEAST PLAINS

CITY           SKY/WX    TMP DP  RH WIND       PRES   REMARKS
ROSWELL        FAIR      95  52  23 S5G24     30.00F
ARTESIA        FAIR      93  57  29 SE15      30.00F
CARLSBAD       FAIR      94  55  26 VRB7G21   29.98F
HOBBS          MOSUNNY   93  50  22 S9G21     30.04F


$$



USA.gov is the U.S. government's official web portal to all federal, state and local government web resources and services.